User: anonymous   Login
Location: Campillo
(40.8621°N, 4.2488°W)
Time: 02:26:02
(UTC+00:00)
Language:

Cosmos 1271 Rocket - Orbit

View from above orbital plane
View from above orbital plane
View from above satellite
View from above satellite

Ground track
Ground track

The orbit data is extracted from the following two-line orbital elements,

1 12465U 81046B   21208.52120989  .00000744  00000-0  37937-4 0  9994
2 12465  81.2420  98.2814 0033483 342.9525  17.0574 15.15012718181601
Epoch (UTC): 27 July 2021 12:30:32
Eccentricity: 0.0033483
inclination: 81.2420°
perigee height: 498 km
apogee height: 544 km
right ascension of ascending node: 98.2814°
argument of perigee: 342.9525°
revolutions per day: 15.15012718
mean anomaly at epoch: 17.0574°
orbit number at epoch: 18160

The dashed part of the orbit path shows where the satellite is in the earth's shadow,  

DLR